Weather in Nizhneye

Russia / Kurgan Oblast     54°51′38″N   64°28′26″E
temp.,
°C
wind,
m/s
gust,
m/s
humid.,
%
clouds,
%
prec.,
mm/h
press.,
hPa
HPBL,
m
18 april, sun
sun1823:00+7wnw236510 0.0 102044
02:00+6sw22728 0.0 101815
05:00+5nw357972 0.0 101772
08:00+7nw47595 0.0 1016263
11:00+11nw79465 0.0 10151366
14:00+10n10105379 0.0 10171399
17:00+6nne9104166 0.0 10211578
20:00+2ne811432 0.0 10251259
19 april, mon
mon1923:00−1ne710420 0.0 10281005
02:00−3ne610430 0.0 1031946
05:00−5nne69450 0.0 1032865
08:00−4ne68390 0.0 1034980
11:00−1ne67300 0.0 10341441
14:00+1ne56275 0.0 10331852
17:00+1ne562823 0.0 10332048
20:00−2ene334186 0.0 103433
20 april, tue
tue2023:00−3ne35490 0.0 1035120
02:00−3ne22460 0.0 103529
05:00−4n22450 0.0 103619
08:00−1nnw22330 0.0 1036425
11:00+3nnw34275 0.0 10361458
14:00+5nw34275 0.0 10341639
17:00+7nw56295 0.0 10321634
20:00+3w33440 0.0 103234
21 april, wed
wed2123:00+2w48515 0.0 1031133
02:00+1wnw49592 0.0 1031132
05:00+1nw48690 0.0 1031117
08:00+5nnw47581 0.0 1032279
11:00+9nnw56421 0.0 10321162
14:00+12nnw56405 0.0 10321627
17:00+12n454044 0.0 10321806
20:00+9nnw335425 0.0 103435
22 april, thu
thu2223:00+6ene22655 0.0 103526
02:00+5sse33745 0.0 103639
05:00+3sse22795 0.0 103717
08:00+7sse22663 0.0 1038194
11:00+11sse22492 0.0 1038840
14:00+14s22395 0.0 10381693
17:00+14s22368 0.0 10371883
20:00+11sse34495 0.0 103844